DW7816 Weather Reports


Display with metric or nautical units.
time (UTC)temp
F
wind
direction
speed
MPH
gust
MPH
rain 1hr
in
rain 24hr
in
rain mn
in
humidity
%
barometer
mb
20260509041133 61 118 0.0 0.0 0.00 0.00 0.00 88 1009.9
20260509040106 61 38 0.0 1.0 0.00 0.00 0.00 88 1010.0
20260509035055 62 115 0.0 4.0 0.00 0.00 0.00 86 1010.2
20260509034029 62 29 3.0 9.0 0.00 0.00 0.00 85 1010.4
20260509033024 63 154 4.0 10.0 0.00 0.00 0.00 82 1010.2
20260509031954 64 57 4.0 10.0 0.00 0.00 0.00 77 1010.1
20260509025751 64 62 2.0 8.0 0.00 0.00 0.00 77 1009.6
20260509024809 63 272 1.0 6.0 0.00 0.00 0.00 77 1009.3
20260509023811 63 281 1.0 7.0 0.00 0.00 0.00 80 1008.6
20260509022825 62 53 1.0 7.0 0.00 0.00 0.00 81 1008.5
20260509021752 61 315 0.0 3.0 0.00 0.00 0.00 83 1008.2
20260509020734 61 202 0.0 0.0 0.00 0.00 0.00 84 1007.8
20260509015722 61 162 0.0 0.0 0.00 0.00 0.00 85 1007.6
20260509014648 61 162 0.0 0.0 0.00 0.00 0.00 83 1007.6
20260509011346 62 21 0.0 0.0 0.00 0.00 0.00 85 1007.1
20260509010359 63 21 0.0 0.0 0.00 0.00 0.00 84 1007.4
20260509005404 63 21 0.0 0.0 0.00 0.00 0.00 82 1007.6
20260509003241 64 21 0.0 0.0 0.00 0.00 0.00 80 1007.4
20260509001033 65 219 0.0 0.0 0.00 0.00 0.00 77 1007.3
20260509000004 66 219 0.0 0.0 0.00 0.00 0.00 72 1007.4
20260508235005 67 339 0.0 9.0 0.00 0.00 0.00 72 1007.8
20260508233959 69 305 0.0 9.0 0.00 0.00 0.00 69 1008.6
20260508233019 70 58 0.0 0.0 0.00 0.00 0.00 65 1008.9
20260508232034 71 300 0.0 1.0 0.00 0.00 0.00 61 1008.9
20260508231037 72 251 0.0 0.0 0.00 0.00 0.00 64 1008.7
20260508230028 72 26 0.0 1.0 0.00 0.00 0.00 57 1008.6
20260508225044 73 327 0.0 0.0 0.00 0.00 0.00 56 1008.6
20260508224015 74 329 0.0 3.0 0.00 0.00 0.00 53 1008.5
20260508222952 74 295 0.0 7.0 0.00 0.00 0.00 54 1008.5
20260508221951 75 214 1.0 8.0 0.00 0.00 0.00 53 1008.1
20260508221007 76 355 2.0 8.0 0.00 0.00 0.00 51 1008.1
20260508220028 77 296 2.0 7.0 0.00 0.00 0.00 48 1008.0
20260508213957 77 217 2.0 11.0 0.00 0.00 0.00 52 1008.1
20260508212948 77 189 3.0 11.0 0.00 0.00 0.00 52 1008.1
20260508211934 77 203 2.0 7.0 0.00 0.00 0.00 49 1008.2
20260508203548 76 211 3.0 8.0 0.00 0.00 0.00 51 1009.1
20260508201509 75 269 2.0 11.0 0.00 0.00 0.00 58 1009.5
20260508200452 75 286 2.0 8.0 0.00 0.00 0.00 52 1009.8
20260508195443 75 263 3.0 11.0 0.00 0.00 0.00 59 1009.9
20260508194446 75 306 3.0 11.0 0.00 0.00 0.00 55 1010.2
20260508193431 75 321 2.0 9.0 0.00 0.00 0.00 55 1010.2
20260508192421 74 218 2.0 9.0 0.00 0.00 0.00 55 1010.4
20260508191440 74 281 2.0 8.0 0.00 0.00 0.00 57 1010.6
20260508190420 74 265 1.0 6.0 0.00 0.00 0.00 59 1010.7
20260508185433 74 339 3.0 8.0 0.00 0.00 0.00 55 1010.9
20260508183228 74 269 3.0 10.0 0.00 0.00 0.00 53 1011.2
20260508182220 73 314 3.0 10.0 0.00 0.00 0.00 56 1011.3
20260508181202 73 258 3.0 10.0 0.00 0.00 0.00 60 1011.5
20260508180207 72 146 3.0 8.0 0.00 0.00 0.00 59 1011.9
20260508174056 71 159 2.0 7.0 0.00 0.00 0.00 62 1012.2
20260508173105 70 196 1.0 10.0 0.00 0.00 0.00 62 1012.3
20260508172108 69 286 3.0 10.0 0.00 0.00 0.00 64 1012.5
20260508171102 69 339 2.0 9.0 0.00 0.00 0.00 62 1012.8
20260508170118 68 202 3.0 10.0 0.00 0.00 0.00 65 1013.1
20260508165102 68 302 4.0 10.0 0.00 0.00 0.00 64 1013.2
20260508164118 69 265 4.0 10.0 0.00 0.00 0.00 62 1013.2
20260508163129 69 259 3.0 8.0 0.00 0.00 0.00 63 1013.3
20260508162118 68 335 3.0 13.0 0.00 0.00 0.00 65 1013.4
20260508161102 67 306 5.0 13.0 0.00 0.00 0.00 63 1013.6
20260508160125 67 268 4.0 11.0 0.00 0.00 0.00 63 1013.7
20260508154001 66 331 5.0 13.0 0.00 0.00 0.00 65 1013.8
20260508152935 66 273 3.0 13.0 0.00 0.00 0.00 67 1013.9
20260508151914 65 268 3.0 9.0 0.00 0.00 0.00 68 1013.9
20260508145825 63 208 2.0 9.0 0.00 0.00 0.00 73 1014.2
20260508144756 63 325 3.0 9.0 0.00 0.00 0.00 73 1014.3
20260508143729 62 330 3.0 8.0 0.00 0.00 0.00 72 1014.5
20260508134209 58 283 1.0 9.0 0.00 0.00 0.00 76 1014.6
20260508132126 57 267 0.0 6.0 0.00 0.00 0.00 82 1014.8
20260508131119 55 279 1.0 10.0 0.00 0.00 0.00 83 1014.8
20260508130106 54 224 1.0 10.0 0.00 0.00 0.00 85 1014.7
20260508125118 52 264 0.0 6.0 0.00 0.00 0.00 89 1014.7
20260508124059 51 219 0.0 4.0 0.00 0.00 0.00 92 1014.6
20260508123035 49 222 0.0 1.0 0.00 0.00 0.00 98 1014.8
20260508122050 47 242 0.0 2.0 0.00 0.00 0.00 99 1014.7
20260508121046 45 255 0.0 0.0 0.00 0.00 0.00 98 1014.6
20260508120018 44 255 0.0 0.0 0.00 0.00 0.00 98 1014.6
20260508115024 43 255 0.0 0.0 0.00 0.00 0.00 97 1014.6
20260508113953 43 255 0.0 0.0 0.00 0.00 0.00 97 1014.5
20260508113018 43 255 0.0 0.0 0.00 0.00 0.00 97 1014.3
20260508112020 43 255 0.0 0.0 0.00 0.00 0.00 97 1014.3
20260508111034 43 255 0.0 0.0 0.00 0.00 0.00 97 1014.3
20260508110045 43 255 0.0 0.0 0.00 0.00 0.00 97 1014.2
20260508105015 43 294 0.0 0.0 0.00 0.00 0.00 97 1014.3
20260508103941 43 294 0.0 0.0 0.00 0.00 0.00 97 1014.3
20260508102940 43 294 0.0 0.0 0.00 0.00 0.00 97 1014.3
20260508101945 43 294 0.0 0.0 0.00 0.00 0.00 97 1014.3
20260508101004 43 294 0.0 0.0 0.00 0.00 0.00 97 1014.3
20260508100012 43 294 0.0 0.0 0.00 0.00 0.00 97 1014.2
20260508095033 43 294 0.0 0.0 0.00 0.00 0.00 97 1014.1
20260508092940 43 294 0.0 0.0 0.00 0.00 0.00 96 1014.1
20260508091908 43 294 0.0 0.0 0.00 0.00 0.00 96 1014.1
20260508090854 43 294 0.0 0.0 0.00 0.00 0.00 96 1014.2
20260508085839 43 294 0.0 0.0 0.00 0.00 0.00 96 1014.1
20260508084855 43 294 0.0 0.0 0.00 0.00 0.00 96 1014.2
20260508083904 43 294 0.0 0.0 0.00 0.00 0.00 96 1014.3
20260508082917 43 294 0.0 0.0 0.00 0.00 0.00 97 1014.4
20260508081851 43 294 0.0 0.0 0.00 0.00 0.00 97 1014.5
20260508080912 43 294 0.0 0.0 0.00 0.00 0.00 96 1014.5
20260508075856 43 294 0.0 0.0 0.00 0.00 0.00 96 1014.5
20260508074900 43 294 0.0 0.0 0.00 0.00 0.00 96 1014.6
20260508073850 43 294 0.0 0.0 0.00 0.00 0.00 96 1014.8
20260508072833 43 294 0.0 0.0 0.00 0.00 0.00 96 1014.9
20260508071850 43 294 0.0 0.0 0.00 0.00 0.00 96 1015.0
20260508070835 43 294 0.0 0.0 0.00 0.00 0.00 96 1015.1
20260508064619 43 294 0.0 0.0 0.00 0.00 0.00 96 1015.2
20260508063607 43 294 0.0 0.0 0.00 0.00 0.00 96 1015.2
20260508062626 43 294 0.0 0.0 0.00 0.00 0.00 96 1015.3
20260508061644 43 294 0.0 0.0 0.00 0.00 0.00 96 1015.3
20260508055526 43 294 0.0 0.0 0.00 0.00 0.00 95 1015.3
20260508054504 43 294 0.0 0.0 0.00 0.00 0.00 95 1015.2
20260508052325 43 294 0.0 0.0 0.00 0.00 0.00 95 1015.6
20260508051333 44 294 0.0 0.0 0.00 0.00 0.00 94 1015.6
20260508050340 44 294 0.0 0.0 0.00 0.00 0.00 94 1015.8
20260508045359 44 294 0.0 0.0 0.00 0.00 0.00 94 1015.8
20260508043245 45 294 0.0 0.0 0.00 0.00 0.00 93 1015.9